This demonstration page uses our WeatherBlox Daily Observations layout. Learn more.

Left ArrowRight Arrow

34.02893, -84.19858

Hourly Observations for June 3, 2022

Temp ( °F °C ) Dew Point ( °F °C ) Humidity (%) Winds ( mph kmh ) Pressure ( in mb ) Visibility ( mi km ) Precip ( " mm )
12:53 am 00:53 Clear 71 21.7 67 19.4 87 87 W 5 7 29.83 1010 10 16 0.00 0.00
6:53 am 06:53 Mostly Cloudy 68 20 66 18.9 93 93 NW 5 7 29.82 1010 10 16 0.00 0.00
7:49 am 07:49 Mostly Cloudy 70 21 66 19 88 88 W 6 9 29.85 1011 10 16 0.00 0.00
7:53 am 07:53 Mostly Cloudy 69 20.6 66 18.9 90 90 WNW 6 9 29.84 1010 10 16 0.00 0.00
8:06 am 08:06 Mostly Cloudy 69 20.6 66 18.9 90 90 WNW 6 9 29.85 1011 9 14 0.00 0.00
8:53 am 08:53 Mostly Cloudy 71 21.7 67 19.4 87 87 NW 8 13 29.84 1011 10 16 0.00 0.00
8:57 am 08:57 Partly Cloudy 70 21.1 67 19.4 90 90 NW 7 11 29.86 1011 10 16 0.00 0.00
9:53 am 09:53 Mostly Sunny 75 23.9 68 20 79 79 W 7 11 29.85 1011 10 16 0.00 0.00
10:53 am 10:53 Sunny 77 25 67 19.4 71 71 WNW 5 7 29.85 1011 10 16 0.00 0.00
11:53 am 11:53 Sunny 81 27.2 67 19.4 62 62 N 7 11 29.85 1011 10 16 0.00 0.00
12:53 pm 12:53 Mostly Sunny 83 28.3 67 19.4 59 59 VRB 7 11 29.84 1010 10 16 0.00 0.00
1:53 pm 13:53 Sunny 84 28.9 65 18.3 53 53 VRB 7 11 29.82 1010 10 16 0.00 0.00
2:53 pm 14:53 Partly Cloudy 84 28.9 66 18.9 55 55 W 8 13 29.82 1010 10 16 0.00 0.00
3:53 pm 15:53 Mostly Sunny 84 28.9 65 18.3 53 53 NW 10 17 29.80 1009 10 16 0.00 0.00
4:53 pm 16:53 Partly Cloudy 84 28.9 63 17.2 49 49 WNW 12 19 29.80 1009 10 16 0.00 0.00
5:53 pm 17:53 Sunny 83 28.3 64 17.8 53 53 NNW 12 19 29.80 1009 10 16 0.00 0.00
6:53 pm 18:53 Sunny 80 26.7 61 16.1 52 52 NW 12 19 29.81 1009 10 16 0.00 0.00
7:53 pm 19:53 Sunny 78 25.6 62 16.7 58 58 NNW 7 11 29.81 1010 10 16 0.00 0.00
8:53 pm 20:53 Mostly Clear 75 23.9 62 16.7 64 64 NNW 8 13 29.82 1010 10 16 0.00 0.00
9:53 pm 21:53 Mostly Cloudy 74 23.3 62 16.7 67 67 NNW 6 9 29.82 1010 10 16 0.00 0.00
10:53 pm 22:53 Clear 71 21.7 62 16.7 73 73 N 6 9 29.86 1011 10 16 0.00 0.00
11:53 pm 23:53 Partly Cloudy 73 22.8 63 17.2 71 71 VRB 6 9 29.86 1011 10 16 0.00 0.00

Powered by AerisWeather